,,Stat6,,Stat2,,Stat8,,Stat9,,Stat10,,Wind1,,Wind1,
time,status,PA1M_AVG,status,PR1M_SUM,status,RH1M_AVG,status,SR1M_AVG,status,TA1M_AVG,status,W1dAve1m,status,W1sAve1m,
2003-12-29, 00:00:00,VALID,919.386,VALID,0,VALID,87.1278,VALID,0,VALID,19.66,VALID,137,VALID,1.65718,
2003-12-29, 00:01:00,VALID,919.375,VALID,0,VALID,87.227,VALID,0,VALID,19.6463,VALID,114,VALID,2.18266,
2003-12-29, 00:02:00,VALID,919.369,VALID,0,VALID,87.1036,VALID,0,VALID,19.6076,VALID,123,VALID,2.46493,
2003-12-29, 00:03:00,VALID,919.352,VALID,0,VALID,86.6281,VALID,-0.0169808,VALID,19.659,VALID,132,VALID,2.41442,
2003-12-29, 00:04:00,VALID,919.332,VALID,0,VALID,85.9274,VALID,0,VALID,19.7661,VALID,118,VALID,2.24437,
2003-12-29, 00:05:00,VALID,919.346,VALID,0,VALID,85.9121,VALID,0,VALID,19.8468,VALID,118,VALID,1.83168,
2003-12-29, 00:06:00,VALID,919.373,VALID,0,VALID,85.8804,VALID,-0.0169808,VALID,19.8403,VALID,97,VALID,2.04446,
2003-12-29, 00:07:00,VALID,919.368,VALID,0,VALID,85.8956,VALID,0,VALID,19.8269,VALID,128,VALID,2.18984,
2003-12-29, 00:08:00,VALID,919.372,VALID,0,VALID,85.8231,VALID,0,VALID,19.8401,VALID,139,VALID,1.43679,
2003-12-29, 00:09:00,VALID,919.372,VALID,0,VALID,85.8638,VALID,0,VALID,19.8729,VALID,136,VALID,2.71465,
2003-12-29, 00:10:00,VALID,919.39,VALID,0,VALID,85.8053,VALID,-0.0169808,VALID,19.898,VALID,140,VALID,2.85138,
2003-12-29, 00:11:00,VALID,919.39,VALID,0,VALID,85.9592,VALID,0,VALID,19.9044,VALID,128,VALID,1.74945,
2003-12-29, 00:12:00,VALID,919.38,VALID,0,VALID,86.183,VALID,0,VALID,19.8592,VALID,116,VALID,1.67969,
2003-12-29, 00:13:00,VALID,919.353,VALID,0,VALID,86.2911,VALID,0,VALID,19.8307,VALID,114,VALID,1.96129,
2003-12-29, 00:14:00,VALID,919.363,VALID,0,VALID,86.1436,VALID,0.0169808,VALID,19.8336,VALID,125,VALID,2.01944,
2003-12-29, 00:15:00,VALID,919.365,VALID,0,VALID,86.5772,VALID,-0.0169808,VALID,19.8011,VALID,102,VALID,1.49126,
2003-12-29, 00:16:00,VALID,919.365,VALID,0,VALID,86.7832,VALID,0.0169808,VALID,19.7402,VALID,136,VALID,1.94131,
2003-12-29, 00:17:00,VALID,919.367,VALID,0,VALID,86.9892,VALID,0,VALID,19.7042,VALID,139,VALID,1.9125,
2003-12-29, 00:18:00,VALID,919.358,VALID,0,VALID,86.8404,VALID,0,VALID,19.7015,VALID,121,VALID,1.77381,
2003-12-29, 00:19:00,VALID,919.358,VALID,0,VALID,86.965,VALID,0,VALID,19.7042,VALID,124,VALID,2.30246,
2003-12-29, 00:20:00,VALID,919.346,VALID,0,VALID,87.0642,VALID,0,VALID,19.6945,VALID,130,VALID,1.55977,
2003-12-29, 00:21:00,VALID,919.32,VALID,0,VALID,87.1698,VALID,0,VALID,19.6848,VALID,134,VALID,1.56086,
2003-12-29, 00:22:00,VALID,919.295,VALID,0,VALID,87.2982,VALID,0,VALID,19.6791,VALID,114,VALID,1.91842,
2003-12-29, 00:23:00,VALID,919.3,VALID,0,VALID,86.8544,VALID,0,VALID,19.6625,VALID,128,VALID,2.4974,
2003-12-29, 00:24:00,VALID,919.302,VALID,0,VALID,86.946,VALID,0,VALID,19.6977,VALID,108,VALID,1.72027,
2003-12-29, 00:25:00,VALID,919.315,VALID,0,VALID,87.227,VALID,-0.0169808,VALID,19.6848,VALID,104,VALID,1.40461,
2003-12-29, 00:26:00,VALID,919.31,VALID,0,VALID,87.5169,VALID,0,VALID,19.6366,VALID,110,VALID,1.31055,
2003-12-29, 00:27:00,VALID,919.319,VALID,0,VALID,87.5563,VALID,0,VALID,19.6113,VALID,128,VALID,2.18178,
2003-12-29, 00:28:00,VALID,919.318,VALID,0,VALID,87.3389,VALID,-0.0169808,VALID,19.6175,VALID,121,VALID,2.3569,
2003-12-29, 00:29:00,VALID,919.299,VALID,0,VALID,87.2931,VALID,0,VALID,19.6466,VALID,105,VALID,1.97159,
2003-12-29, 00:30:00,VALID,919.297,VALID,0,VALID,87.6047,VALID,-0.0339617,VALID,19.6339,VALID,108,VALID,1.42634,
2003-12-29, 00:31:00,VALID,919.311,VALID,0,VALID,87.8297,VALID,-0.0169808,VALID,19.5653,VALID,117,VALID,1.57496,
2003-12-29, 00:32:00,VALID,919.294,VALID,0,VALID,87.7013,VALID,0,VALID,19.5395,VALID,77,VALID,2.04985,
2003-12-29, 00:33:00,VALID,919.281,VALID,0,VALID,87.4584,VALID,0,VALID,19.5879,VALID,115,VALID,2.10175,
2003-12-29, 00:34:00,VALID,919.261,VALID,0,VALID,87.5805,VALID,-0.0169808,VALID,19.6014,VALID,121,VALID,1.24143,
2003-12-29, 00:35:00,VALID,919.263,VALID,0,VALID,87.9098,VALID,-0.0169808,VALID,19.5658,VALID,120,VALID,1.79973,
2003-12-29, 00:36:00,VALID,919.28,VALID,0,VALID,88.0294,VALID,0,VALID,19.5271,VALID,124,VALID,2.15723,
2003-12-29, 00:37:00,VALID,919.258,VALID,0,VALID,87.7725,VALID,-0.0679233,VALID,19.5534,VALID,121,VALID,1.82851,
2003-12-29, 00:38:00,VALID,919.229,VALID,0,VALID,87.5716,VALID,-0.0169808,VALID,19.6016,VALID,127,VALID,2.08426,
2003-12-29, 00:39:00,VALID,919.219,VALID,0,VALID,87.3567,VALID,-0.0169808,VALID,19.6237,VALID,129,VALID,2.50677,
2003-12-29, 00:40:00,VALID,919.207,VALID,0,VALID,87.1672,VALID,0,VALID,19.6565,VALID,127,VALID,2.4117,
2003-12-29, 00:41:00,VALID,919.178,VALID,0,VALID,86.08,VALID,0.0169808,VALID,19.7015,VALID,112,VALID,2.55729,
2003-12-29, 00:42:00,VALID,919.181,VALID,0,VALID,86.623,VALID,-0.0339617,VALID,19.7534,VALID,107,VALID,1.30069,
2003-12-29, 00:43:00,VALID,919.173,VALID,0,VALID,86.9739,VALID,0,VALID,19.7216,VALID,123,VALID,1.63834,
2003-12-29, 00:44:00,VALID,919.176,VALID,0,VALID,87.4215,VALID,0,VALID,19.65,VALID,116,VALID,1.80142,
2003-12-29, 00:45:00,VALID,919.18,VALID,0,VALID,87.8819,VALID,0,VALID,19.5723,VALID,120,VALID,1.37402,
2003-12-29, 00:46:00,VALID,919.191,VALID,0,VALID,88.1845,VALID,0,VALID,19.5079,VALID,74,VALID,1.62871,
2003-12-29, 00:47:00,VALID,919.184,VALID,0,VALID,88.1603,VALID,-0.0169808,VALID,19.456,VALID,116,VALID,2.14732,
2003-12-29, 00:48:00,VALID,919.181,VALID,0,VALID,88.3651,VALID,-0.0169808,VALID,19.4501,VALID,106,VALID,1.82267,
2003-12-29, 00:49:00,VALID,919.164,VALID,0,VALID,88.5393,VALID,0,VALID,19.4337,VALID,134,VALID,1.66334,
2003-12-29, 00:50:00,VALID,919.163,VALID,0,VALID,88.5901,VALID,0,VALID,19.3947,VALID,104,VALID,1.82213,
2003-12-29, 00:51:00,VALID,919.151,VALID,0,VALID,88.0319,VALID,0,VALID,19.4498,VALID,124,VALID,2.76163,
2003-12-29, 00:52:00,VALID,919.158,VALID,0,VALID,87.9671,VALID,0,VALID,19.5306,VALID,97,VALID,1.63246,
2003-12-29, 00:53:00,VALID,919.171,VALID,0,VALID,88.0345,VALID,-0.0339617,VALID,19.5117,VALID,113,VALID,2.07133,
2003-12-29, 00:54:00,VALID,919.154,VALID,0,VALID,88.3193,VALID,-0.0339617,VALID,19.4729,VALID,106,VALID,1.47619,
2003-12-29, 00:55:00,VALID,919.141,VALID,0,VALID,88.4363,VALID,-0.0339617,VALID,19.421,VALID,120,VALID,1.79836,
2003-12-29, 00:56:00,VALID,919.128,VALID,0,VALID,88.5584,VALID,0,VALID,19.4016,VALID,122,VALID,2.38619,
2003-12-29, 00:57:00,VALID,919.114,VALID,0,VALID,88.5914,VALID,-0.0169808,VALID,19.3949,VALID,105,VALID,1.623,
2003-12-29, 00:58:00,VALID,919.108,VALID,0,VALID,88.6855,VALID,-0.0169808,VALID,19.3723,VALID,113,VALID,1.90589,
2003-12-29, 00:59:00,VALID,919.111,VALID,0,VALID,88.7173,VALID,-0.0339617,VALID,19.3465,VALID,78,VALID,1.80796,
2003-12-29, 01:00:00,VALID,919.134,VALID,0,VALID,88.4973,VALID,-0.0169808,VALID,19.3465,VALID,118,VALID,2.03802,
2003-12-29, 01:01:00,VALID,919.126,VALID,0,VALID,88.3422,VALID,0,VALID,19.3728,VALID,122,VALID,2.05078,
2003-12-29, 01:02:00,VALID,919.122,VALID,0,VALID,88.4045,VALID,-0.0509425,VALID,19.3924,VALID,109,VALID,1.24707,
2003-12-29, 01:03:00,VALID,919.104,VALID,0,VALID,88.5978,VALID,-0.0169808,VALID,19.3758,VALID,119,VALID,1.70694,
2003-12-29, 01:04:00,VALID,919.095,VALID,0,VALID,88.6931,VALID,-0.0169808,VALID,19.3368,VALID,118,VALID,1.35919,
2003-12-29, 01:05:00,VALID,919.071,VALID,0,VALID,88.8343,VALID,-0.0339617,VALID,19.3174,VALID,123,VALID,2.05938,
2003-12-29, 01:06:00,VALID,919.05,VALID,0,VALID,89.025,VALID,-0.0169808,VALID,19.2983,VALID,123,VALID,1.99386,
2003-12-29, 01:07:00,VALID,919.024,VALID,0,VALID,88.9615,VALID,-0.0169808,VALID,19.2888,VALID,113,VALID,2.17832,
2003-12-29, 01:08:00,VALID,919.01,VALID,0,VALID,88.8089,VALID,0,VALID,19.3244,VALID,119,VALID,1.82138,
2003-12-29, 01:09:00,VALID,919.005,VALID,0,VALID,88.8216,VALID,-0.0339617,VALID,19.3308,VALID,118,VALID,1.9185,
2003-12-29, 01:10:00,VALID,918.997,VALID,0,VALID,88.9882,VALID,-0.0339617,VALID,19.3112,VALID,105,VALID,1.32101,
2003-12-29, 01:11:00,VALID,919,VALID,0,VALID,89.4345,VALID,-0.0339617,VALID,19.2432,VALID,94,VALID,1.45499,
2003-12-29, 01:12:00,VALID,918.99,VALID,0,VALID,89.5184,VALID,-0.0169808,VALID,19.1853,VALID,102,VALID,1.52344,
2003-12-29, 01:13:00,VALID,918.984,VALID,0,VALID,89.4065,VALID,-0.0169808,VALID,19.1629,VALID,113,VALID,1.8497,
2003-12-29, 01:14:00,VALID,918.964,VALID,0,VALID,89.4281,VALID,-0.0169808,VALID,19.1721,VALID,110,VALID,1.70982,
2003-12-29, 01:15:00,VALID,918.941,VALID,0,VALID,89.5845,VALID,-0.0509425,VALID,19.1493,VALID,86,VALID,1.08648,
2003-12-29, 01:16:00,VALID,918.888,VALID,0,VALID,89.5858,VALID,-0.0339617,VALID,19.1527,VALID,119,VALID,1.35828,
2003-12-29, 01:17:00,VALID,918.85,VALID,0,VALID,89.465,VALID,-0.0169808,VALID,19.1433,VALID,122,VALID,1.74702,
2003-12-29, 01:18:00,VALID,918.835,VALID,0,VALID,89.334,VALID,-0.0169808,VALID,19.1694,VALID,129,VALID,2.09336,
2003-12-29, 01:19:00,VALID,918.826,VALID,0,VALID,88.8953,VALID,-0.0509425,VALID,19.2471,VALID,114,VALID,1.91515,
2003-12-29, 01:20:00,VALID,918.823,VALID,0,VALID,88.8165,VALID,-0.0169808,VALID,19.3052,VALID,120,VALID,2.03468,
2003-12-29, 01:21:00,VALID,918.825,VALID,0,VALID,88.8279,VALID,0,VALID,19.3077,VALID,116,VALID,1.54383,
2003-12-29, 01:22:00,VALID,918.805,VALID,0,VALID,88.9195,VALID,0,VALID,19.2817,VALID,129,VALID,1.91946,
2003-12-29, 01:23:00,VALID,918.796,VALID,0,VALID,88.7618,VALID,0,VALID,19.2948,VALID,109,VALID,1.66425,
2003-12-29, 01:24:00,VALID,918.771,VALID,0,VALID,88.4541,VALID,0,VALID,19.3236,VALID,104,VALID,1.88319,
2003-12-29, 01:25:00,VALID,918.748,VALID,0,VALID,88.2125,VALID,0,VALID,19.3952,VALID,120,VALID,1.60276,
2003-12-29, 01:26:00,VALID,918.731,VALID,0,VALID,88.0523,VALID,-0.0169808,VALID,19.4275,VALID,105,VALID,2.06978,
2003-12-29, 01:27:00,VALID,918.701,VALID,0,VALID,88.2875,VALID,0,VALID,19.4212,VALID,114,VALID,1.87574,
2003-12-29, 01:28:00,VALID,918.695,VALID,0,VALID,88.0917,VALID,-0.0169808,VALID,19.4275,VALID,132,VALID,2.24609,
2003-12-29, 01:29:00,VALID,918.662,VALID,0,VALID,87.6898,VALID,0,VALID,19.4853,VALID,85,VALID,1.63245,
2003-12-29, 01:30:00,VALID,918.659,VALID,0,VALID,87.3936,VALID,0,VALID,19.5696,VALID,114,VALID,1.52695,
2003-12-29, 01:31:00,VALID,918.648,VALID,0,VALID,87.2842,VALID,0.0169808,VALID,19.5817,VALID,123,VALID,2.2474,
2003-12-29, 01:32:00,VALID,918.643,VALID,0,VALID,87.2918,VALID,-0.0169808,VALID,19.6021,VALID,121,VALID,2.03013,
2003-12-29, 01:33:00,VALID,918.649,VALID,0,VALID,87.4533,VALID,0,VALID,19.5956,VALID,118,VALID,1.96555,
2003-12-29, 01:34:00,VALID,918.631,VALID,0,VALID,87.77,VALID,0,VALID,19.5239,VALID,124,VALID,1.54135,
2003-12-29, 01:35:00,VALID,918.622,VALID,0,VALID,88.1565,VALID,0,VALID,19.4593,VALID,119,VALID,1.88425,
2003-12-29, 01:36:00,VALID,918.63,VALID,0,VALID,88.552,VALID,0,VALID,19.4108,VALID,104,VALID,1.48739,
2003-12-29, 01:37:00,VALID,918.632,VALID,0,VALID,88.8534,VALID,0,VALID,19.3435,VALID,116,VALID,1.746,
2003-12-29, 01:38:00,VALID,918.637,VALID,0,VALID,89.1242,VALID,0,VALID,19.275,VALID,88,VALID,1.2753,
2003-12-29, 01:39:00,VALID,918.635,VALID,0,VALID,89.3175,VALID,0,VALID,19.2364,VALID,100,VALID,1.64807,
2003-12-29, 01:40:00,VALID,918.637,VALID,0,VALID,89.1624,VALID,0.0169808,VALID,19.2339,VALID,113,VALID,2.04542,
2003-12-29, 01:41:00,VALID,918.609,VALID,0,VALID,89.0759,VALID,0.0169808,VALID,19.2397,VALID,122,VALID,1.32586,
2003-12-29, 01:42:00,VALID,918.594,VALID,0,VALID,89.0543,VALID,-0.0169808,VALID,19.2496,VALID,123,VALID,1.32014,
2003-12-29, 01:43:00,VALID,918.58,VALID,0,VALID,89.1573,VALID,0,VALID,19.227,VALID,135,VALID,1.32715,
2003-12-29, 01:44:00,VALID,918.558,VALID,0,VALID,89.1344,VALID,0,VALID,19.2166,VALID,138,VALID,2.15516,
2003-12-29, 01:45:00,VALID,918.567,VALID,0,VALID,88.9322,VALID,0.0169808,VALID,19.2784,VALID,124,VALID,2.248,
2003-12-29, 01:46:00,VALID,918.578,VALID,0,VALID,88.6537,VALID,0,VALID,19.2946,VALID,93,VALID,1.53068,
2003-12-29, 01:47:00,VALID,918.57,VALID,0,VALID,88.524,VALID,0,VALID,19.3236,VALID,111,VALID,1.10231,
2003-12-29, 01:48:00,VALID,918.563,VALID,0,VALID,88.5889,VALID,-0.0169808,VALID,19.3341,VALID,121,VALID,1.86452,
2003-12-29, 01:49:00,VALID,918.556,VALID,0,VALID,88.5889,VALID,0,VALID,19.3366,VALID,123,VALID,2.0532,
2003-12-29, 01:50:00,VALID,918.534,VALID,0,VALID,88.6715,VALID,0.0169808,VALID,19.3532,VALID,136,VALID,1.97175,
2003-12-29, 01:51:00,VALID,918.535,VALID,0,VALID,88.7618,VALID,-0.0169808,VALID,19.3398,VALID,120,VALID,2.0387,
2003-12-29, 01:52:00,VALID,918.528,VALID,0,VALID,88.758,VALID,0,VALID,19.3368,VALID,119,VALID,2.01209,
2003-12-29, 01:53:00,VALID,918.534,VALID,0,VALID,89.0009,VALID,0,VALID,19.3241,VALID,137,VALID,1.73363,
2003-12-29, 01:54:00,VALID,918.547,VALID,0,VALID,89.0772,VALID,0,VALID,19.3082,VALID,128,VALID,1.56421,
2003-12-29, 01:55:00,VALID,918.546,VALID,0,VALID,89.0912,VALID,-0.0169808,VALID,19.2948,VALID,120,VALID,2.00152,
2003-12-29, 01:56:00,VALID,918.543,VALID,0,VALID,89.1624,VALID,0,VALID,19.2879,VALID,121,VALID,1.6654,
2003-12-29, 01:57:00,VALID,918.516,VALID,0,VALID,89.2438,VALID,0,VALID,19.2846,VALID,130,VALID,1.9941,
2003-12-29, 01:58:00,VALID,918.521,VALID,0,VALID,89.3137,VALID,0.0169808,VALID,19.3075,VALID,136,VALID,2.44457,
2003-12-29, 01:59:00,VALID,918.518,VALID,0,VALID,89.2527,VALID,0,VALID,19.3303,VALID,137,VALID,2.08867,
2003-12-29, 02:00:00,VALID,918.533,VALID,0,VALID,89.1725,VALID,-0.0169808,VALID,19.3596,VALID,143,VALID,2.33516,
2003-12-29, 02:01:00,VALID,918.503,VALID,0,VALID,88.9882,VALID,0,VALID,19.3949,VALID,138,VALID,2.02592,
2003-12-29, 02:02:00,VALID,918.507,VALID,0,VALID,88.9436,VALID,0.0339617,VALID,19.4141,VALID,143,VALID,2.42152,
2003-12-29, 02:03:00,VALID,918.503,VALID,0,VALID,88.8508,VALID,0,VALID,19.4369,VALID,130,VALID,2.2729,
2003-12-29, 02:04:00,VALID,918.492,VALID,0,VALID,88.9081,VALID,0,VALID,19.4332,VALID,135,VALID,1.625,
2003-12-29, 02:05:00,VALID,918.485,VALID,0,VALID,89.0556,VALID,-0.0169808,VALID,19.4111,VALID,143,VALID,2.14043,
2003-12-29, 02:06:00,VALID,918.481,VALID,0,VALID,89.0823,VALID,0,VALID,19.4019,VALID,137,VALID,2.06008,
2003-12-29, 02:07:00,VALID,918.485,VALID,0,VALID,89.1064,VALID,0,VALID,19.3917,VALID,126,VALID,1.74764,
2003-12-29, 02:08:00,VALID,918.474,VALID,0,VALID,89.1229,VALID,-0.0849042,VALID,19.38,VALID,128,VALID,2.02763,
2003-12-29, 02:09:00,VALID,918.482,VALID,0,VALID,89.1586,VALID,-0.101885,VALID,19.3765,VALID,121,VALID,1.74766,
2003-12-29, 02:10:00,VALID,918.482,VALID,0,VALID,89.3569,VALID,-0.118866,VALID,19.3445,VALID,134,VALID,2.19967,
2003-12-29, 02:11:00,VALID,918.482,VALID,0,VALID,89.437,VALID,-0.101885,VALID,19.3318,VALID,126,VALID,1.9782,
2003-12-29, 02:12:00,VALID,918.481,VALID,0,VALID,89.6011,VALID,-0.0509425,VALID,19.3191,VALID,98,VALID,1.33038,
2003-12-29, 02:13:00,VALID,918.48,VALID,0,VALID,89.8617,VALID,-0.101885,VALID,19.2508,VALID,112,VALID,1.90253,
2003-12-29, 02:14:00,VALID,918.475,VALID,0,VALID,89.9978,VALID,-0.101885,VALID,19.2222,VALID,119,VALID,1.89249,
2003-12-29, 02:15:00,VALID,918.478,VALID,0,VALID,90.041,VALID,-0.135847,VALID,19.2093,VALID,123,VALID,1.37976,
2003-12-29, 02:16:00,VALID,918.471,VALID,0,VALID,90.1898,VALID,-0.118866,VALID,19.2061,VALID,95,VALID,1.17522,
2003-12-29, 02:17:00,VALID,918.478,VALID,0,VALID,90.4213,VALID,-0.0849042,VALID,19.1602,VALID,115,VALID,1.61795,
2003-12-29, 02:18:00,VALID,918.487,VALID,0,VALID,90.5382,VALID,-0.101885,VALID,19.1286,VALID,110,VALID,1.49182,
2003-12-29, 02:19:00,VALID,918.478,VALID,0,VALID,90.8371,VALID,-0.0849042,VALID,19.0764,VALID,97,VALID,1.54059,
2003-12-29, 02:20:00,VALID,918.479,VALID,0,VALID,90.9858,VALID,-0.101885,VALID,19.0345,VALID,97,VALID,1.6248,
2003-12-29, 02:21:00,VALID,918.466,VALID,0,VALID,90.9248,VALID,-0.101885,VALID,19.028,VALID,118,VALID,1.47856,
2003-12-29, 02:22:00,VALID,918.461,VALID,0,VALID,90.9286,VALID,-0.101885,VALID,19.0476,VALID,109,VALID,1.84251,
2003-12-29, 02:23:01,VALID,918.461,VALID,0,VALID,90.9375,VALID,-0.0509425,VALID,19.0598,VALID,111,VALID,1.89732,
2003-12-29, 02:24:00,VALID,918.47,VALID,0,VALID,90.9719,VALID,-0.0679233,VALID,19.066,VALID,111,VALID,1.98474,
2003-12-29, 02:25:00,VALID,918.473,VALID,0,VALID,90.9846,VALID,-0.101885,VALID,19.0757,VALID,126,VALID,1.77934,
2003-12-29, 02:26:00,VALID,918.479,VALID,0,VALID,91.0952,VALID,-0.0679233,VALID,19.073,VALID,115,VALID,1.7234,
2003-12-29, 02:27:00,VALID,918.475,VALID,0,VALID,91.2414,VALID,-0.0339617,VALID,19.0658,VALID,114,VALID,1.62706,
2003-12-29, 02:28:00,VALID,918.468,VALID,0,VALID,91.3292,VALID,-0.0339617,VALID,19.0427,VALID,119,VALID,1.74684,
2003-12-29, 02:29:00,VALID,918.463,VALID,0,VALID,91.3711,VALID,-0.101885,VALID,19.0467,VALID,118,VALID,1.41648,
2003-12-29, 02:30:00,VALID,918.438,VALID,0,VALID,91.2351,VALID,-0.0679233,VALID,19.0536,VALID,128,VALID,1.75112,
2003-12-29, 02:31:00,VALID,918.43,VALID,0,VALID,90.893,VALID,-0.101885,VALID,19.0889,VALID,124,VALID,1.93714,
2003-12-29, 02:32:00,VALID,918.423,VALID,0,VALID,90.6832,VALID,-0.101885,VALID,19.1306,VALID,133,VALID,1.88635,
2003-12-29, 02:33:00,VALID,918.432,VALID,0,VALID,90.453,VALID,-0.0509425,VALID,19.182,VALID,121,VALID,1.42276,
2003-12-29, 02:34:00,VALID,918.45,VALID,0,VALID,90.406,VALID,-0.0339617,VALID,19.1917,VALID,120,VALID,1.55486,
2003-12-29, 02:35:00,VALID,918.451,VALID,0,VALID,90.687,VALID,-0.101885,VALID,19.1659,VALID,127,VALID,1.60119,
2003-12-29, 02:36:00,VALID,918.446,VALID,0,VALID,90.8536,VALID,-0.0679233,VALID,19.1599,VALID,124,VALID,1.49486,
2003-12-29, 02:37:00,VALID,918.443,VALID,0,VALID,90.9782,VALID,-0.0509425,VALID,19.1472,VALID,121,VALID,1.85658,
2003-12-29, 02:38:00,VALID,918.425,VALID,0,VALID,91.0889,VALID,0.0509425,VALID,19.1195,VALID,125,VALID,1.58482,
2003-12-29, 02:39:00,VALID,918.425,VALID,0,VALID,91.0901,VALID,0.0679233,VALID,19.1036,VALID,120,VALID,1.6997,
2003-12-29, 02:40:01,VALID,918.445,VALID,0,VALID,91.1512,VALID,0.0339617,VALID,19.1001,VALID,120,VALID,1.88586,
2003-12-29, 02:41:00,VALID,918.448,VALID,0,VALID,91.1957,VALID,0.0509425,VALID,19.0937,VALID,121,VALID,1.52706,
2003-12-29, 02:42:00,VALID,918.45,VALID,0,VALID,91.4322,VALID,0.0339617,VALID,19.0817,VALID,117,VALID,1.53032,
2003-12-29, 02:43:00,VALID,918.423,VALID,0,VALID,91.5504,VALID,0,VALID,19.0517,VALID,127,VALID,1.52069,
2003-12-29, 02:44:00,VALID,918.409,VALID,0,VALID,91.5085,VALID,0.0169808,VALID,19.045,VALID,117,VALID,1.58033,
2003-12-29, 02:45:00,VALID,918.413,VALID,0,VALID,91.5136,VALID,0.0339617,VALID,19.0484,VALID,122,VALID,1.63772,
2003-12-29, 02:46:01,VALID,918.398,VALID,0,VALID,91.5377,VALID,0.0339617,VALID,19.036,VALID,108,VALID,1.65777,
2003-12-29, 02:47:00,VALID,918.379,VALID,0,VALID,91.5593,VALID,0.0679233,VALID,19.0162,VALID,132,VALID,1.97983,
2003-12-29, 02:48:00,VALID,918.388,VALID,0,VALID,91.3813,VALID,0.0509425,VALID,19.0286,VALID,124,VALID,1.18598,
2003-12-29, 02:49:00,VALID,918.381,VALID,0,VALID,91.3902,VALID,0.0679233,VALID,19.0358,VALID,106,VALID,1.65282,
2003-12-29, 02:50:01,VALID,918.403,VALID,0,VALID,91.3915,VALID,0.0169808,VALID,19.0325,VALID,126,VALID,1.61242,
2003-12-29, 02:51:00,VALID,918.414,VALID,0,VALID,91.4004,VALID,0.0169808,VALID,19.0363,VALID,134,VALID,1.55712,
2003-12-29, 02:52:00,VALID,918.424,VALID,0,VALID,91.3711,VALID,0.0169808,VALID,19.042,VALID,123,VALID,1.37748,
2003-12-29, 02:53:00,VALID,918.431,VALID,0,VALID,91.4195,VALID,-0.0679233,VALID,19.0471,VALID,133,VALID,1.3559,
2003-12-29, 02:54:01,VALID,918.444,VALID,0,VALID,91.3991,VALID,-0.0679233,VALID,19.0404,VALID,126,VALID,1.11738,
2003-12-29, 02:55:00,VALID,918.418,VALID,0,VALID,91.4602,VALID,-0.0509425,VALID,19.0374,VALID,140,VALID,1.23129,
2003-12-29, 02:56:00,VALID,918.415,VALID,0,VALID,91.4258,VALID,-0.0169808,VALID,19.037,VALID,119,VALID,1.38345,
2003-12-29, 02:57:00,VALID,918.411,VALID,0,VALID,91.6776,VALID,-0.0509425,VALID,19.0116,VALID,126,VALID,1.82757,
2003-12-29, 02:58:00,VALID,918.411,VALID,0,VALID,91.7348,VALID,-0.101885,VALID,18.9955,VALID,132,VALID,2.09776,
2003-12-29, 02:59:00,VALID,918.407,VALID,0,VALID,91.6636,VALID,-0.0849042,VALID,19.0146,VALID,142,VALID,2.15811,
2003-12-29, 03:00:01,VALID,918.407,VALID,0,VALID,91.4424,VALID,-0.0679233,VALID,19.0603,VALID,142,VALID,1.52065,
2003-12-29, 03:01:01,VALID,918.414,VALID,0,VALID,91.361,VALID,-0.0849042,VALID,19.0864,VALID,137,VALID,1.30178,
2003-12-29, 03:02:00,VALID,918.414,VALID,0,VALID,91.3317,VALID,-0.0679233,VALID,19.0757,VALID,141,VALID,1.57431,
2003-12-29, 03:03:00,VALID,918.381,VALID,0,VALID,91.3699,VALID,-0.0509425,VALID,19.0695,VALID,142,VALID,1.12081,
2003-12-29, 03:04:00,VALID,918.387,VALID,0,VALID,91.4907,VALID,-0.0679233,VALID,19.0571,VALID,129,VALID,1.55041,
2003-12-29, 03:05:00,VALID,918.377,VALID,0,VALID,91.5962,VALID,-0.0509425,VALID,19.0409,VALID,138,VALID,1.67392,
2003-12-29, 03:06:01,VALID,918.382,VALID,0,VALID,91.7323,VALID,-0.0849042,VALID,19.0178,VALID,134,VALID,1.71181,
2003-12-29, 03:07:01,VALID,918.372,VALID,0,VALID,91.6916,VALID,-0.0849042,VALID,19.001,VALID,126,VALID,1.57148,
2003-12-29, 03:08:00,VALID,918.364,VALID,0,VALID,91.806,VALID,-0.0679233,VALID,19.0116,VALID,134,VALID,1.85379,
2003-12-29, 03:09:00,VALID,918.352,VALID,0,VALID,91.7488,VALID,-0.0679233,VALID,19.0114,VALID,114,VALID,1.609,
2003-12-29, 03:10:01,VALID,918.347,VALID,0,VALID,91.9561,VALID,-0.0339617,VALID,19.0084,VALID,124,VALID,1.96701,
2003-12-29, 03:11:00,VALID,918.322,VALID,0,VALID,91.9726,VALID,-0.0339617,VALID,19.0208,VALID,132,VALID,1.82893,
2003-12-29, 03:12:01,VALID,918.307,VALID,0,VALID,91.848,VALID,-0.0509425,VALID,19.0467,VALID,137,VALID,1.54487,
2003-12-29, 03:13:00,VALID,918.31,VALID,0,VALID,91.7577,VALID,-0.0169808,VALID,19.076,VALID,133,VALID,1.57329,
2003-12-29, 03:14:00,VALID,918.298,VALID,0,VALID,91.6445,VALID,-0.0509425,VALID,19.0988,VALID,147,VALID,1.58026,
2003-12-29, 03:15:00,VALID,918.294,VALID,0,VALID,91.4983,VALID,-0.0849042,VALID,19.1246,VALID,134,VALID,1.2167,
2003-12-29, 03:16:00,VALID,918.282,VALID,0,VALID,91.4462,VALID,-0.0849042,VALID,19.1343,VALID,138,VALID,1.55753,
2003-12-29, 03:17:00,VALID,918.257,VALID,0,VALID,91.464,VALID,-0.0509425,VALID,19.1276,VALID,154,VALID,1.26225,
2003-12-29, 03:18:00,VALID,918.246,VALID,0,VALID,91.4195,VALID,-0.0849042,VALID,19.1311,VALID,137,VALID,1.34411,
2003-12-29, 03:19:00,VALID,918.243,VALID,0,VALID,91.3851,VALID,-0.0509425,VALID,19.1309,VALID,146,VALID,1.91279,
2003-12-29, 03:20:00,VALID,918.239,VALID,0,VALID,91.2936,VALID,-0.0169808,VALID,19.1535,VALID,130,VALID,1.45722,
2003-12-29, 03:21:01,VALID,918.241,VALID,0,VALID,91.3114,VALID,-0.0339617,VALID,19.1537,VALID,135,VALID,1.91974,
2003-12-29, 03:22:00,VALID,918.222,VALID,0,VALID,91.3686,VALID,-0.0509425,VALID,19.147,VALID,125,VALID,2.02762,
2003-12-29, 03:23:00,VALID,918.222,VALID,0,VALID,91.5059,VALID,0.0169808,VALID,19.1463,VALID,137,VALID,1.95579,
2003-12-29, 03:24:00,VALID,918.226,VALID,0,VALID,91.4741,VALID,0.0169808,VALID,19.1359,VALID,130,VALID,2.20753,
2003-12-29, 03:25:01,VALID,918.234,VALID,0,VALID,91.4182,VALID,0.0509425,VALID,19.1624,VALID,131,VALID,1.84557,
2003-12-29, 03:26:00,VALID,918.241,VALID,0,VALID,91.3495,VALID,0.0509425,VALID,19.1746,VALID,127,VALID,1.6503,
2003-12-29, 03:27:01,VALID,918.241,VALID,0,VALID,91.3622,VALID,0.0679233,VALID,19.2111,VALID,138,VALID,1.35608,
2003-12-29, 03:28:00,VALID,918.232,VALID,0,VALID,91.3355,VALID,0.0339617,VALID,19.2071,VALID,130,VALID,1.91033,
2003-12-29, 03:29:01,VALID,918.231,VALID,0,VALID,91.2796,VALID,0.0679233,VALID,19.2364,VALID,135,VALID,1.66127,
2003-12-29, 03:30:01,VALID,918.232,VALID,0,VALID,91.1601,VALID,0.0849042,VALID,19.2623,VALID,138,VALID,2.24409,
2003-12-29, 03:31:00,VALID,918.229,VALID,0,VALID,91.0876,VALID,0.0509425,VALID,19.2913,VALID,135,VALID,1.65811,
2003-12-29, 03:32:00,VALID,918.233,VALID,0,VALID,91.0494,VALID,0.0509425,VALID,19.2941,VALID,142,VALID,1.85789,
2003-12-29, 03:33:00,VALID,918.239,VALID,0,VALID,90.9083,VALID,0.0509425,VALID,19.3303,VALID,140,VALID,1.55945,
2003-12-29, 03:34:01,VALID,918.224,VALID,0,VALID,90.804,VALID,0.0509425,VALID,19.3495,VALID,144,VALID,1.89472,
2003-12-29, 03:35:00,VALID,918.196,VALID,0,VALID,90.5967,VALID,0.0339617,VALID,19.389,VALID,133,VALID,1.80504,